Weather History for Oak Ridge, TN

Change the Weather History Date:

Sunday, June 30, 2013

  Actual Average (KTYS) Record (KTYS)
Temperature  
Mean Temperature 76 °F 78 °F  
Max Temperature 88 °F 88 °F 105 °F (2012)
Min Temperature 66 °F 68 °F 50 °F (1923)
Degree Days  
Heating Degree Days 0 0  
Month to date heating degree days 0  
Since 1 June heating degree days 4  
Since 1 July heating degree days 3637  
Cooling Degree Days 12 13  
Month to date cooling degree days 305  
Year to date cooling degree days 467  
Since 1 June cooling degree days 305  
Growing Degree Days 26 (Base 50)    
Moisture  
Dew Point 63 °F    
Average Humidity 69    
Maximum Humidity 94    
Minimum Humidity 37    
Precipitation  
Precipitation 0.00 in 0.15 in 2.20 in (1939)
Month to date precipitation 3.81  
Year to date precipitation 25.25  
Snow  
Snow 0.00 in 0.00 in - ()
Month to date snowfall 0.0  
Since 1 June snowfall 0.0  
Since 1 July snowfall 6.5  
Snow Depth -    
Sea Level Pressure  
Sea Level Pressure 29.72 in    
Wind  
Wind Speed 1 mph (SW)    
Max Wind Speed 7 mph    
Max Gust Speed -    
Visibility 7 miles    
Events Fog    
T = Trace of Precipitation, MM = Missing Value Source: NWS Daily Summary

Daily Weather History Graph

Daily Weather History Graph

Search for Another Location

Airport:

Trip Planner

Search our weather history database for the weather conditions in past years. The results will help you decide how hot, cold, wet, or windy it might be!

Date:

Astronomy

Jun. 30, 2013 Rise Set
Actual Time 6:23 AM EDT 8:57 PM EDT
Civil Twilight 5:53 AM EDT 9:27 PM EDT
Nautical Twilight 5:15 AM EDT 10:05 PM EDT
Astronomical Twilight 4:34 AM EDT 10:46 PM EDT
Moon 1:12 AM EDT (6/30) 2:19 PM EDT (6/30)
Length of Visible Light 15h 34m
Length of Day
14h 34m
Last Quarter, 45% of the Moon is Illuminated
Jun 30
Last Quarter
Jul 8
New
Jul 15
First Quarter
Jul 22
Full
Jul 29
Last Quarter

Hourly Weather History & Observations

Time (EDT) Temp. Heat Index Dew Point Humidity Pressure Visibility Wind Dir Wind Speed Gust Speed Precip Events Conditions
12:21 AM 69.8 °F - 64.4 °F 83% 29.73 in 0.8 mi Calm Calm - N/A   Mostly Cloudy
12:53 AM 68.0 °F - 64.9 °F 90% 29.69 in 0.8 mi Calm Calm - N/A   Partly Cloudy
1:53 AM 70.0 °F - 66.0 °F 87% 29.68 in 0.5 mi Calm Calm - 0.00 in Fog Fog
2:53 AM 68.0 °F - 64.9 °F 90% 29.68 in 0.5 mi Calm Calm - N/A Fog Fog
3:53 AM 68.0 °F - 64.9 °F 90% 29.67 in 0.5 mi Calm Calm - N/A Fog Fog
4:53 AM 66.9 °F - 64.9 °F 93% 29.68 in 0.5 mi Calm Calm - N/A Fog Fog
5:53 AM 66.9 °F - 64.0 °F 90% 29.69 in 0.5 mi Calm Calm - N/A Fog Fog
6:00 AM 66.2 °F - 64.4 °F 94% 29.74 in 2.5 mi Calm Calm - N/A   Clear
6:07 AM 66.2 °F - 64.4 °F 94% 29.74 in 10.0 mi Calm Calm - N/A   Clear
6:53 AM 66.0 °F - 64.0 °F 93% 29.71 in 10.0 mi Calm Calm - N/A   Clear
7:53 AM 70.0 °F - 64.0 °F 81% 29.72 in 10.0 mi Calm Calm - N/A   Clear
8:53 AM 72.0 °F - 64.9 °F 78% 29.73 in 10.0 mi Calm Calm - N/A   Clear
9:53 AM 75.9 °F - 64.0 °F 67% 29.74 in 10.0 mi Calm Calm - N/A   Clear
10:53 AM 79.0 °F - 64.0 °F 60% 29.73 in 10.0 mi Calm Calm - N/A   Clear
11:53 AM 80.1 °F 81.5 °F 63.0 °F 56% 29.74 in 10.0 mi Variable 3.5 mph - N/A   Scattered Clouds
12:53 PM 82.9 °F 82.8 °F 59.0 °F 44% 29.73 in 10.0 mi Variable 3.5 mph - N/A   Scattered Clouds
1:53 PM 84.0 °F 83.8 °F 59.0 °F 43% 29.72 in 10.0 mi South 4.6 mph - N/A   Scattered Clouds
2:53 PM 87.1 °F 86.1 °F 57.9 °F 37% 29.70 in 10.0 mi Variable 6.9 mph - N/A   Scattered Clouds
3:53 PM 86.0 °F 85.4 °F 59.0 °F 40% 29.70 in 10.0 mi West 5.8 mph - N/A   Clear
4:53 PM 86.0 °F 85.0 °F 57.9 °F 38% 29.70 in 10.0 mi Variable 6.9 mph - N/A   Scattered Clouds
5:53 PM 86.0 °F 86.1 °F 61.0 °F 43% 29.70 in 10.0 mi Variable 4.6 mph - N/A   Clear
6:53 PM 84.0 °F 83.5 °F 57.9 °F 41% 29.71 in 10.0 mi Variable 3.5 mph - N/A   Clear
7:53 PM 82.0 °F 83.0 °F 62.1 °F 51% 29.72 in 10.0 mi Calm Calm - N/A   Clear
8:53 PM 77.0 °F - 64.0 °F 64% 29.74 in 10.0 mi Calm Calm - N/A   Clear
9:53 PM 75.0 °F - 64.0 °F 69% 29.75 in 10.0 mi Calm Calm - N/A   Clear
10:53 PM 73.0 °F - 64.9 °F 76% 29.77 in 10.0 mi Calm Calm - N/A   Clear
11:53 PM 71.1 °F - 64.9 °F 81% 29.78 in 10.0 mi Calm Calm - N/A   Clear